Volver al catálogo

SS 3

ActivoCienciaLEO
NORAD 10594·PAYLOAD·🇺🇸 United States

Lanzado Dec 8, 1977 desde Vandenberg Space Force Base

Loading…

Próximos Pases (próximas 24 horas)

TLE

ActualizadoSource: Space-Track

Época: Sep 14, 2026, 07:57 UTC

1 10594U 77112F   26257.33138664  .00000172  00000-0  74610-4 0  9995
2 10594  63.3315 279.2069 0472840 165.1381 196.4146 14.03196299379809

Sigue SS 3 en tiempo real con AllMySat

Download on the App Store